����,���ϕ���(m/s),���ϕ���,�ő�u�ԕ���(m/s),�ő啗��������,�C��(��),���x(%),10���Ԉړ��ώZ�J��(mm),1���Ԉړ��ώZ�J��(mm),���J��(mm),�݌v�J��(mm),����(���ώZ)(MJ/m2),����(���ώZ)(min),���n�C��(hPa),�C�ʋC��(hPa)
2021-08-30T00:00:00+09:00,0.5,�k�k��,1,�k�k��,26.9,85.2,0,0,0,0,17.97,362,1001.9,1015.2
2021-08-30T00:01:00+09:00,0.4,�k,1,�k�k��,26.9,85.1,0,0,0,0,0,0,1001.9,1015.2
2021-08-30T00:02:00+09:00,0.4,�k,1,�k�k��,26.8,84.8,0,0,0,0,0,0,1001.9,1015.2
2021-08-30T00:03:00+09:00,0.4,�k,1,�k�k��,26.7,84.9,0,0,0,0,0,0,1001.9,1015.2
2021-08-30T00:04:00+09:00,0.3,�k�k��,0.7,�k�k��,26.6,85.4,0,0,0,0,0,0,1001.9,1015.2
2021-08-30T00:05:00+09:00,0.3,�k�k��,0.7,�k�k��,26.7,85.7,0,0,0,0,0,0,1001.9,1015.2
2021-08-30T00:06:00+09:00,0.2,�É�,0.7,�k�k��,26.7,85.9,0,0,0,0,0,0,1001.9,1015.2
2021-08-30T00:07:00+09:00,0.2,�É�,0.7,�k�k��,26.7,85.8,0,0,0,0,0,0,1001.9,1015.2
2021-08-30T00:08:00+09:00,0.2,�É�,0.8,��,26.6,85.7,0,0,0,0,0,0,1001.9,1015.2
2021-08-30T00:09:00+09:00,0.3,�k��,0.8,��,26.6,86,0,0,0,0,0,0,1001.9,1015.2
2021-08-30T00:10:00+09:00,0.3,���k��,0.8,��,26.7,86.3,0,0,0,0,0,0,1001.9,1015.2
2021-08-30T00:11:00+09:00,0.3,���k��,0.8,��,26.6,86.2,0,0,0,0,0,0,1001.8,1015.1
2021-08-30T00:12:00+09:00,0.3,���k��,0.8,��,26.6,86.2,0,0,0,0,0,0,1001.8,1015.1
2021-08-30T00:13:00+09:00,0.4,���k��,0.8,��,26.6,86.4,0,0,0,0,0,0,1001.8,1015.1
2021-08-30T00:14:00+09:00,0.4,���k��,0.8,��,26.5,86.6,0,0,0,0,0,0,1001.8,1015.1
2021-08-30T00:15:00+09:00,0.4,���k��,0.8,��,26.6,86.7,0,0,0,0,0,0,1001.8,1015.1
2021-08-30T00:16:00+09:00,0.5,���k��,0.8,��,26.8,86.9,0,0,0,0,0,0,1001.8,1015.1
2021-08-30T00:17:00+09:00,0.5,���k��,0.8,��,26.8,86.6,0,0,0,0,0,0,1001.8,1015.1
2021-08-30T00:18:00+09:00,0.5,���k��,0.8,��,26.8,85.9,0,0,0,0,0,0,1001.8,1015.1
2021-08-30T00:19:00+09:00,0.5,���k��,0.8,��,26.8,85.6,0,0,0,0,0,0,1001.8,1015.1
2021-08-30T00:20:00+09:00,0.5,���k��,0.8,��,26.7,85.7,0,0,0,0,0,0,1001.8,1015.1
2021-08-30T00:21:00+09:00,0.4,�k��,0.8,��,26.7,85.8,0,0,0,0,0,0,1001.8,1015.1
2021-08-30T00:22:00+09:00,0.4,�k��,0.8,�k�k��,26.6,85.8,0,0,0,0,0,0,1001.8,1015.1
2021-08-30T00:23:00+09:00,0.4,�k��,0.8,�k�k��,26.6,86,0,0,0,0,0,0,1001.8,1015.1
2021-08-30T00:24:00+09:00,0.4,�k��,0.8,�k�k��,26.7,86.3,0,0,0,0,0,0,1001.8,1015.1
2021-08-30T00:25:00+09:00,0.4,�k��,0.8,�k�k��,26.7,86.5,0,0,0,0,0,0,1001.8,1015.1
2021-08-30T00:26:00+09:00,0.4,�k��,0.8,�k�k��,26.7,86.1,0,0,0,0,0,0,1001.8,1015.1
2021-08-30T00:27:00+09:00,0.4,�k��,0.8,�k�k��,26.8,86.1,0,0,0,0,0,0,1001.8,1015.1
2021-08-30T00:28:00+09:00,0.4,�k��,0.8,�k�k��,26.7,85.9,0,0,0,0,0,0,1001.8,1015.1
2021-08-30T00:29:00+09:00,0.4,�k��,0.9,��,26.6,85.9,0,0,0,0,0,0,1001.8,1015.1
2021-08-30T00:30:00+09:00,0.4,���k��,0.9,��,26.6,86.1,0,0,0,0,0,0,1001.8,1015.1
2021-08-30T00:31:00+09:00,0.4,���k��,0.9,��,26.6,86.4,0,0,0,0,0,0,1001.8,1015.1
2021-08-30T00:32:00+09:00,0.5,���k��,0.9,��,26.7,86.6,0,0,0,0,0,0,1001.8,1015.1
2021-08-30T00:33:00+09:00,0.4,���k��,0.9,��,26.7,86.4,0,0,0,0,0,0,1001.8,1015.1
2021-08-30T00:34:00+09:00,0.4,���k��,0.9,��,26.8,86.4,0,0,0,0,0,0,1001.8,1015.1
2021-08-30T00:35:00+09:00,0.4,���k��,0.9,��,26.8,86.3,0,0,0,0,0,0,1001.8,1015.1
2021-08-30T00:36:00+09:00,0.4,���k��,0.9,��,26.8,86,0,0,0,0,0,0,1001.8,1015.1
2021-08-30T00:37:00+09:00,0.4,���k��,0.9,��,26.8,85.9,0,0,0,0,0,0,1001.8,1015.1
2021-08-30T00:38:00+09:00,0.4,���k��,0.9,��,26.9,85.7,0,0,0,0,0,0,1001.8,1015.1
2021-08-30T00:39:00+09:00,0.4,���k��,0.8,��,26.9,85.7,0,0,0,0,0,0,1001.8,1015.1
2021-08-30T00:40:00+09:00,0.4,���k��,1,���k��,26.8,85.4,0,0,0,0,0,0,1001.8,1015.1
2021-08-30T00:41:00+09:00,0.4,���k��,1,���k��,26.8,85.5,0,0,0,0,0,0,1001.8,1015.1
2021-08-30T00:42:00+09:00,0.5,���k��,1,���k��,26.7,85.6,0,0,0,0,0,0,1001.8,1015.1
2021-08-30T00:43:00+09:00,0.5,���k��,1,���k��,26.6,85.8,0,0,0,0,0,0,1001.8,1015.1
2021-08-30T00:44:00+09:00,0.5,���k��,1,���k��,26.8,86.3,0,0,0,0,0,0,1001.9,1015.2
2021-08-30T00:45:00+09:00,0.6,���k��,1,���k��,26.8,86.3,0,0,0,0,0,0,1001.9,1015.2
2021-08-30T00:46:00+09:00,0.6,��,1,���k��,26.8,86.1,0,0,0,0,0,0,1001.9,1015.2
2021-08-30T00:47:00+09:00,0.6,��,1,���k��,26.7,86,0,0,0,0,0,0,1001.9,1015.2
2021-08-30T00:48:00+09:00,0.6,��,1,���k��,26.7,86.2,0,0,0,0,0,0,1001.9,1015.2
2021-08-30T00:49:00+09:00,0.6,��,1,���k��,26.7,86.2,0,0,0,0,0,0,1001.9,1015.2
2021-08-30T00:50:00+09:00,0.5,��,0.9,��,26.7,86.3,0,0,0,0,0,0,1001.9,1015.2
2021-08-30T00:51:00+09:00,0.5,���k��,0.9,��,26.7,86.4,0,0,0,0,0,0,1001.9,1015.2
2021-08-30T00:52:00+09:00,0.4,���k��,0.9,��,26.7,86.3,0,0,0,0,0,0,1001.9,1015.2
2021-08-30T00:53:00+09:00,0.4,�k��,0.9,��,26.8,86.3,0,0,0,0,0,0,1001.9,1015.2
2021-08-30T00:54:00+09:00,0.3,�k��,0.9,��,26.8,86.1,0,0,0,0,0,0,1001.9,1015.2
2021-08-30T00:55:00+09:00,0.3,�k��,0.9,��,26.9,85.8,0,0,0,0,0,0,1001.9,1015.2
2021-08-30T00:56:00+09:00,0.3,�k��,0.9,���k��,26.9,85.7,0,0,0,0,0,0,1001.9,1015.2
2021-08-30T00:57:00+09:00,0.3,�k��,0.9,���k��,26.8,85.5,0,0,0,0,0,0,1001.9,1015.2
2021-08-30T00:58:00+09:00,0.3,�k��,0.9,���k��,26.8,85.4,0,0,0,0,0,0,1001.9,1015.2
2021-08-30T00:59:00+09:00,0.3,�k��,0.9,���k��,26.8,85.6,0,0,0,0,0,0,1001.9,1015.2
2021-08-30T01:00:00+09:00,0.3,�k��,0.9,���k��,26.7,85.6,0,0,0,0,0,0,1001.9,1015.2
2021-08-30T01:01:00+09:00,0.3,�k��,0.9,���k��,26.8,85.9,0,0,0,0,0,0,1001.9,1015.2
2021-08-30T01:02:00+09:00,0.3,���k��,0.9,���k��,26.8,85.9,0,0,0,0,0,0,1001.9,1015.2
2021-08-30T01:03:00+09:00,0.3,���k��,0.9,���k��,26.7,85.6,0,0,0,0,0,0,1001.9,1015.2
2021-08-30T01:04:00+09:00,0.3,���k��,0.9,���k��,26.6,85.8,0,0,0,0,0,0,1001.9,1015.2
2021-08-30T01:05:00+09:00,0.3,���k��,0.9,��,26.6,86,0,0,0,0,0,0,1001.9,1015.2
2021-08-30T01:06:00+09:00,0.2,�É�,0.9,��,26.6,86.2,0,0,0,0,0,0,1001.9,1015.2
2021-08-30T01:07:00+09:00,0.2,�É�,0.9,��,26.5,86,0,0,0,0,0,0,1001.8,1015.1
2021-08-30T01:08:00+09:00,0.1,�É�,0.7,��,26.5,86.3,0,0,0,0,0,0,1001.8,1015.1
2021-08-30T01:09:00+09:00,0.1,�É�,0.7,��,26.5,86.5,0,0,0,0,0,0,1001.8,1015.1
2021-08-30T01:10:00+09:00,0.1,�É�,0.7,��,26.6,86.8,0,0,0,0,0,0,1001.8,1015.1
2021-08-30T01:11:00+09:00,0.1,�É�,0.7,��,26.5,86.6,0,0,0,0,0,0,1001.8,1015.1
2021-08-30T01:12:00+09:00,0.1,�É�,0.7,��,26.5,86.7,0,0,0,0,0,0,1001.8,1015.1
2021-08-30T01:13:00+09:00,0.1,�É�,0.7,��,26.5,86.9,0,0,0,0,0,0,1001.8,1015.1
2021-08-30T01:14:00+09:00,0.1,�É�,0.7,��,26.5,87.2,0,0,0,0,0,0,1001.9,1015.2
2021-08-30T01:15:00+09:00,0.1,�É�,0.7,��,26.6,87.3,0,0,0,0,0,0,1001.9,1015.2
2021-08-30T01:16:00+09:00,0.1,�É�,0.5,�k�k��,26.8,87.2,0,0,0,0,0,0,1001.9,1015.2
2021-08-30T01:17:00+09:00,0.1,�É�,0.5,�k�k��,27,86.6,0,0,0,0,0,0,1001.9,1015.2
2021-08-30T01:18:00+09:00,0.1,�É�,0.5,�k�k��,26.7,85.6,0,0,0,0,0,0,1001.9,1015.2
2021-08-30T01:19:00+09:00,0.1,�É�,0.9,�k��,26.7,85.8,0,0,0,0,0,0,1001.9,1015.2
2021-08-30T01:20:00+09:00,0.2,�É�,0.9,�k��,26.8,85.7,0,0,0,0,0,0,1001.9,1015.2
2021-08-30T01:21:00+09:00,0.2,�É�,0.9,�k��,26.8,85.7,0,0,0,0,0,0,1001.9,1015.2
2021-08-30T01:22:00+09:00,0.3,�k�k��,1,�k��,26.8,85.6,0,0,0,0,0,0,1002,1015.3
2021-08-30T01:23:00+09:00,0.4,�k�k��,1,�k��,26.8,85.4,0,0,0,0,0,0,1002,1015.3
2021-08-30T01:24:00+09:00,0.4,�k�k��,1,�k��,26.8,85.3,0,0,0,0,0,0,1002,1015.3
2021-08-30T01:25:00+09:00,0.5,�k�k��,1,�k��,26.8,85.4,0,0,0,0,0,0,1002,1015.3
2021-08-30T01:26:00+09:00,0.5,�k��,1,�k��,26.8,85.4,0,0,0,0,0,0,1002,1015.3
2021-08-30T01:27:00+09:00,0.6,�k��,1,�k��,27,85.6,0,0,0,0,0,0,1002,1015.3
2021-08-30T01:28:00+09:00,0.6,�k��,1,�k��,26.9,85.4,0,0,0,0,0,0,1002,1015.3
2021-08-30T01:29:00+09:00,0.6,�k��,1,�k��,27,85.2,0,0,0,0,0,0,1002,1015.3
2021-08-30T01:30:00+09:00,0.6,�k��,1,�k��,26.9,84.9,0,0,0,0,0,0,1002,1015.3
2021-08-30T01:31:00+09:00,0.5,�k��,1,�k��,26.8,84.9,0,0,0,0,0,0,1002,1015.3
2021-08-30T01:32:00+09:00,0.5,�k�k��,1,�k��,26.8,85.1,0,0,0,0,0,0,1002,1015.3
2021-08-30T01:33:00+09:00,0.4,�k�k��,1,�k��,26.7,85.3,0,0,0,0,0,0,1001.9,1015.2
2021-08-30T01:34:00+09:00,0.4,�k�k��,1,�k��,26.8,85.4,0,0,0,0,0,0,1001.9,1015.2
2021-08-30T01:35:00+09:00,0.3,�k,1,�k��,26.7,85.1,0,0,0,0,0,0,1001.9,1015.2
2021-08-30T01:36:00+09:00,0.2,�É�,1,�k��,26.6,85,0,0,0,0,0,0,1001.9,1015.2
2021-08-30T01:37:00+09:00,0.2,�É�,0.7,�k�k��,26.5,85.6,0,0,0,0,0,0,1001.9,1015.2
2021-08-30T01:38:00+09:00,0.2,�É�,0.7,�k,26.5,86,0,0,0,0,0,0,1001.9,1015.2
2021-08-30T01:39:00+09:00,0.2,�É�,0.8,�k�k��,26.6,86.3,0,0,0,0,0,0,1001.9,1015.2
2021-08-30T01:40:00+09:00,0.2,�É�,0.8,�k�k��,26.7,86.6,0,0,0,0,0,0,1001.9,1015.2
2021-08-30T01:41:00+09:00,0.3,�k�k��,0.8,�k�k��,26.8,86.4,0,0,0,0,0,0,1001.9,1015.2
2021-08-30T01:42:00+09:00,0.3,�k�k��,0.8,�k�k��,27,86.2,0,0,0,0,0,0,1001.9,1015.2
2021-08-30T01:43:00+09:00,0.3,�k�k��,0.8,�k�k��,27,85.5,0,0,0,0,0,0,1001.9,1015.2
2021-08-30T01:44:00+09:00,0.3,�k�k��,0.8,�k�k��,26.8,84.8,0,0,0,0,0,0,1001.9,1015.2
2021-08-30T01:45:00+09:00,0.3,�k,0.8,�k�k��,26.8,85,0,0,0,0,0,0,1001.9,1015.2
2021-08-30T01:46:00+09:00,0.3,�k,0.8,�k�k��,26.7,85,0,0,0,0,0,0,1001.9,1015.2
2021-08-30T01:47:00+09:00,0.3,�k,0.8,�k�k��,26.6,85.2,0,0,0,0,0,0,1001.9,1015.2
2021-08-30T01:48:00+09:00,0.3,�k,0.8,�k�k��,26.7,85.5,0,0,0,0,0,0,1001.9,1015.2
2021-08-30T01:49:00+09:00,0.2,�É�,0.8,�k,26.7,85.7,0,0,0,0,0,0,1002,1015.3
2021-08-30T01:50:00+09:00,0.2,�É�,0.8,�k,26.7,85.7,0,0,0,0,0,0,1002,1015.3
2021-08-30T01:51:00+09:00,0.2,�É�,0.7,�k��,26.6,85.6,0,0,0,0,0,0,1002,1015.3
2021-08-30T01:52:00+09:00,0.2,�É�,0.7,�k��,26.6,86.1,0,0,0,0,0,0,1002,1015.3
2021-08-30T01:53:00+09:00,0.2,�É�,0.7,�k��,26.7,86.3,0,0,0,0,0,0,1002,1015.3
2021-08-30T01:54:00+09:00,0.2,�É�,0.7,�k��,26.7,86.3,0,0,0,0,0,0,1002,1015.3
2021-08-30T01:55:00+09:00,0.2,�É�,0.7,�k��,26.9,86.2,0,0,0,0,0,0,1001.9,1015.2
2021-08-30T01:56:00+09:00,0.3,�k��,0.9,�k�k��,26.9,85.7,0,0,0,0,0,0,1001.9,1015.2
2021-08-30T01:57:00+09:00,0.3,�k��,0.9,�k�k��,26.6,85.2,0,0,0,0,0,0,1001.9,1015.2
2021-08-30T01:58:00+09:00,0.3,�k�k��,0.9,�k�k��,26.4,85.3,0,0,0,0,0,0,1001.9,1015.2
2021-08-30T01:59:00+09:00,0.3,�k�k��,0.9,�k�k��,26.5,86.2,0,0,0,0,0,0,1001.9,1015.2
2021-08-30T02:00:00+09:00,0.3,�k�k��,0.9,�k�k��,26.4,86.7,0,0,0,0,0,0,1001.9,1015.2
2021-08-30T02:01:00+09:00,0.3,�k,0.9,�k�k��,26.6,87,0,0,0,0,0,0,1001.9,1015.2
2021-08-30T02:02:00+09:00,0.3,�k,0.9,�k�k��,26.6,86.9,0,0,0,0,0,0,1001.9,1015.2
2021-08-30T02:03:00+09:00,0.3,�k,0.9,�k�k��,26.7,86.6,0,0,0,0,0,0,1001.9,1015.2
2021-08-30T02:04:00+09:00,0.3,�k,0.9,�k�k��,26.6,86.2,0,0,0,0,0,0,1001.8,1015.1
2021-08-30T02:05:00+09:00,0.3,�k�k��,0.9,�k�k��,26.7,86.3,0,0,0,0,0,0,1001.8,1015.1
2021-08-30T02:06:00+09:00,0.3,�k�k��,0.7,�k�k��,26.7,86.4,0,0,0,0,0,0,1001.8,1015.1
2021-08-30T02:07:00+09:00,0.3,�k�k��,0.7,�k�k��,26.6,85.8,0,0,0,0,0,0,1001.8,1015.1
2021-08-30T02:08:00+09:00,0.2,�É�,0.7,���k��,26.6,86.1,0,0,0,0,0,0,1001.8,1015.1
2021-08-30T02:09:00+09:00,0.2,�É�,0.7,���k��,26.5,86.1,0,0,0,0,0,0,1001.8,1015.1
2021-08-30T02:10:00+09:00,0.2,�É�,0.7,���k��,26.3,86.3,0,0,0,0,0,0,1001.8,1015.1
2021-08-30T02:11:00+09:00,0.2,�É�,0.7,���k��,26.2,86.7,0,0,0,0,0,0,1001.8,1015.1
2021-08-30T02:12:00+09:00,0.2,�É�,0.7,���k��,26.2,87.5,0,0,0,0,0,0,1001.8,1015.1
2021-08-30T02:13:00+09:00,0.2,�É�,0.7,���k��,26.4,87.9,0,0,0,0,0,0,1001.8,1015.1
2021-08-30T02:14:00+09:00,0.2,�É�,0.7,���k��,26.4,88,0,0,0,0,0,0,1001.8,1015.1
2021-08-30T02:15:00+09:00,0.1,�É�,0.7,���k��,26.4,87.8,0,0,0,0,0,0,1001.8,1015.1
2021-08-30T02:16:00+09:00,0.2,�É�,0.7,���k��,26.4,87.9,0,0,0,0,0,0,1001.8,1015.1
2021-08-30T02:17:00+09:00,0.2,�É�,0.7,��,26.4,87.7,0,0,0,0,0,0,1001.8,1015.1
2021-08-30T02:18:00+09:00,0.3,�k��,0.9,���k��,26.4,87.7,0,0,0,0,0,0,1001.8,1015.1
2021-08-30T02:19:00+09:00,0.3,�k��,0.9,���k��,26.4,87.7,0,0,0,0,0,0,1001.8,1015.1
2021-08-30T02:20:00+09:00,0.3,���k��,0.9,���k��,26.3,87.6,0,0,0,0,0,0,1001.8,1015.1
2021-08-30T02:21:00+09:00,0.3,���k��,0.9,���k��,26.3,87.7,0,0,0,0,0,0,1001.8,1015.1
2021-08-30T02:22:00+09:00,0.4,���k��,0.9,���k��,26.3,87.8,0,0,0,0,0,0,1001.8,1015.1
2021-08-30T02:23:00+09:00,0.4,���k��,0.9,���k��,26.2,87.9,0,0,0,0,0,0,1001.8,1015.1
2021-08-30T02:24:00+09:00,0.4,��,0.9,���k��,26.4,88.2,0,0,0,0,0,0,1001.8,1015.1
2021-08-30T02:25:00+09:00,0.4,��,0.9,���k��,26.4,88,0,0,0,0,0,0,1001.8,1015.1
2021-08-30T02:26:00+09:00,0.4,��,0.9,���k��,26.1,87.7,0,0,0,0,0,0,1001.8,1015.1
2021-08-30T02:27:00+09:00,0.4,��,1.1,��,26.1,87.8,0,0,0,0,0,0,1001.9,1015.2
2021-08-30T02:28:00+09:00,0.4,���쐼,1.1,��,25.9,87.9,0,0,0,0,0,0,1001.9,1015.2
2021-08-30T02:29:00+09:00,0.4,���쐼,1.2,��,25.9,88.9,0,0,0,0,0,0,1001.9,1015.2
2021-08-30T02:30:00+09:00,0.4,���쐼,1.2,��,26,89.2,0,0,0,0,0,0,1001.9,1015.2
2021-08-30T02:31:00+09:00,0.4,�쐼,1.2,��,26.1,89.7,0,0,0,0,0,0,1001.9,1015.2
2021-08-30T02:32:00+09:00,0.4,�쐼,1.2,��,25.7,89.3,0,0,0,0,0,0,1001.9,1015.2
2021-08-30T02:33:00+09:00,0.5,�쐼,1.2,��,25.8,89.9,0,0,0,0,0,0,1001.9,1015.2
2021-08-30T02:34:00+09:00,0.6,�쐼,1.3,��쐼,25.5,90,0,0,0,0,0,0,1001.9,1015.3
2021-08-30T02:35:00+09:00,0.7,�쐼,1.4,��쐼,25.4,90.7,0,0,0,0,0,0,1001.9,1015.3
2021-08-30T02:36:00+09:00,0.7,��쐼,1.4,��쐼,25.5,91.7,0,0,0,0,0,0,1001.9,1015.3
2021-08-30T02:37:00+09:00,0.8,��쐼,1.4,��쐼,25.8,92.6,0,0,0,0,0,0,1001.9,1015.2
2021-08-30T02:38:00+09:00,0.8,��쐼,1.4,��쐼,25.9,92.4,0,0,0,0,0,0,1001.9,1015.2
2021-08-30T02:39:00+09:00,0.7,��쐼,1.4,��쐼,25.9,91.9,0,0,0,0,0,0,1001.9,1015.2
2021-08-30T02:40:00+09:00,0.7,��쐼,1.4,��쐼,26.1,91.8,0,0,0,0,0,0,1001.9,1015.2
2021-08-30T02:41:00+09:00,0.7,��쐼,1.4,��쐼,26.1,91,0,0,0,0,0,0,1001.9,1015.2
2021-08-30T02:42:00+09:00,0.7,��쐼,1.4,��쐼,26,90.3,0,0,0,0,0,0,1001.9,1015.2
2021-08-30T02:43:00+09:00,0.7,��쐼,1.4,��쐼,25.9,89.9,0,0,0,0,0,0,1001.9,1015.2
2021-08-30T02:44:00+09:00,0.6,��쐼,1.4,��쐼,25.9,90,0,0,0,0,0,0,1001.9,1015.2
2021-08-30T02:45:00+09:00,0.5,�쐼,1.3,��쐼,25.7,89.8,0,0,0,0,0,0,1001.9,1015.2
2021-08-30T02:46:00+09:00,0.5,�쐼,1,��쐼,25.7,90.2,0,0,0,0,0,0,1001.9,1015.2
2021-08-30T02:47:00+09:00,0.4,�쐼,0.9,��쐼,25.7,90.7,0,0,0,0,0,0,1001.9,1015.2
2021-08-30T02:48:00+09:00,0.4,�쐼,0.9,��쐼,25.9,91.4,0,0,0,0,0,0,1001.9,1015.2
2021-08-30T02:49:00+09:00,0.4,�쐼,0.9,��쐼,25.9,91.5,0,0,0,0,0,0,1001.9,1015.2
2021-08-30T02:50:00+09:00,0.4,�쐼,0.9,��쐼,25.8,91,0,0,0,0,0,0,1001.9,1015.2
2021-08-30T02:51:00+09:00,0.4,�쐼,0.9,��쐼,25.8,90.8,0,0,0,0,0,0,1002,1015.3
2021-08-30T02:52:00+09:00,0.4,�쐼,0.9,��쐼,25.8,91,0,0,0,0,0,0,1002,1015.3
2021-08-30T02:53:00+09:00,0.3,�쐼,0.9,��쐼,25.7,90.7,0,0,0,0,0,0,1002,1015.3
2021-08-30T02:54:00+09:00,0.3,�쐼,0.9,��쐼,25.7,90.9,0,0,0,0,0,0,1002,1015.3
2021-08-30T02:55:00+09:00,0.3,�쐼,0.9,��쐼,26,91.8,0,0,0,0,0,0,1001.9,1015.2
2021-08-30T02:56:00+09:00,0.2,�É�,0.8,�쐼,26.2,91.4,0,0,0,0,0,0,1001.9,1015.2
2021-08-30T02:57:00+09:00,0.2,�É�,0.8,�쐼,26.3,90.8,0,0,0,0,0,0,1001.9,1015.2
2021-08-30T02:58:00+09:00,0.2,�É�,0.8,�쐼,26.1,89.9,0,0,0,0,0,0,1001.9,1015.2
2021-08-30T02:59:00+09:00,0.2,�É�,0.8,�쐼,26.1,89.6,0,0,0,0,0,0,1001.9,1015.2
2021-08-30T03:00:00+09:00,0.2,�É�,0.8,�쐼,26.3,89.7,0,0,0,0,0,0,1001.9,1015.2
2021-08-30T03:01:00+09:00,0.2,�É�,0.7,�쐼,26.2,89.1,0,0,0,0,0,0,1001.9,1015.2
2021-08-30T03:02:00+09:00,0.1,�É�,0.6,�쐼,26.1,88.6,0,0,0,0,0,0,1002,1015.3
2021-08-30T03:03:00+09:00,0.2,�É�,0.6,�쐼,26.1,88.6,0,0,0,0,0,0,1001.9,1015.2
2021-08-30T03:04:00+09:00,0.2,�É�,0.6,�쐼,26.2,89.1,0,0,0,0,0,0,1001.9,1015.2
2021-08-30T03:05:00+09:00,0.2,�É�,0.6,�쐼,26.3,89.1,0,0,0,0,0,0,1001.9,1015.2
2021-08-30T03:06:00+09:00,0.2,�É�,0.6,�쐼,26.2,88.8,0,0,0,0,0,0,1001.9,1015.2
2021-08-30T03:07:00+09:00,0.2,�É�,0.6,�쐼,26.2,88.8,0,0,0,0,0,0,1002,1015.3
2021-08-30T03:08:00+09:00,0.2,�É�,0.6,�쐼,26.2,88.8,0,0,0,0,0,0,1002,1015.3
2021-08-30T03:09:00+09:00,0.2,�É�,0.6,�쐼,26.2,88.7,0,0,0,0,0,0,1002,1015.3
2021-08-30T03:10:00+09:00,0.2,�É�,0.6,�쐼,26.2,88.8,0,0,0,0,0,0,1002,1015.3
2021-08-30T03:11:00+09:00,0.2,�É�,0.5,���k��,26.1,88.6,0,0,0,0,0,0,1002,1015.3
2021-08-30T03:12:00+09:00,0.2,�É�,0.7,��,26.1,88.5,0,0,0,0,0,0,1001.9,1015.2
2021-08-30T03:13:00+09:00,0.2,�É�,0.7,��,26,88.6,0,0,0,0,0,0,1001.9,1015.2
2021-08-30T03:14:00+09:00,0.2,�É�,0.7,��,25.9,88.7,0,0,0,0,0,0,1001.9,1015.2
2021-08-30T03:15:00+09:00,0.2,�É�,0.7,��,26.1,89.1,0,0,0,0,0,0,1001.9,1015.2
2021-08-30T03:16:00+09:00,0.2,�É�,0.7,��,26,89.2,0,0,0,0,0,0,1001.9,1015.2
2021-08-30T03:17:00+09:00,0.2,�É�,0.7,��,25.7,88.7,0,0,0,0,0,0,1001.9,1015.2
2021-08-30T03:18:00+09:00,0.2,�É�,0.7,��,25.6,89.5,0,0,0,0,0,0,1002,1015.4
2021-08-30T03:19:00+09:00,0.2,�É�,1.3,��,25.3,89.9,0,0,0,0,0,0,1001.9,1015.3
2021-08-30T03:20:00+09:00,0.3,��,1.3,��,25.2,90.2,0,0,0,0,0,0,1001.9,1015.3
2021-08-30T03:21:00+09:00,0.3,��,1.3,��,25.1,91.3,0,0,0,0,0,0,1001.9,1015.3
2021-08-30T03:22:00+09:00,0.3,��,1.3,��,25,91.8,0,0,0,0,0,0,1001.9,1015.3
2021-08-30T03:23:00+09:00,0.4,��쐼,1.3,��,25,92.5,0,0,0,0,0,0,1001.9,1015.3
2021-08-30T03:24:00+09:00,0.4,��쐼,1.3,��,25.1,93.3,0,0,0,0,0,0,1001.9,1015.3
2021-08-30T03:25:00+09:00,0.4,��쐼,1.3,��,25.1,93.8,0,0,0,0,0,0,1001.9,1015.3
2021-08-30T03:26:00+09:00,0.5,�쐼,1.3,��,25.2,94.2,0,0,0,0,0,0,1001.9,1015.3
2021-08-30T03:27:00+09:00,0.5,�쐼,1.3,��,25.3,94.6,0,0,0,0,0,0,1001.9,1015.3
2021-08-30T03:28:00+09:00,0.5,�쐼,1.3,��,25.3,94.4,0,0,0,0,0,0,1001.9,1015.3
2021-08-30T03:29:00+09:00,0.4,�쐼,1.2,��,25.1,93.5,0,0,0,0,0,0,1001.9,1015.3
2021-08-30T03:30:00+09:00,0.4,�쐼,1.2,��,25.2,93.8,0,0,0,0,0,0,1001.9,1015.3
2021-08-30T03:31:00+09:00,0.4,�쐼,1.2,��,25.4,94.4,0,0,0,0,0,0,1001.9,1015.3
2021-08-30T03:32:00+09:00,0.4,�쐼,1.2,��,25.3,94,0,0,0,0,0,0,1001.9,1015.3
2021-08-30T03:33:00+09:00,0.5,�쐼,1.4,��쐼,25.2,93.4,0,0,0,0,0,0,1001.9,1015.3
2021-08-30T03:34:00+09:00,0.6,�쐼,1.4,��쐼,25,92.8,0,0,0,0,0,0,1001.9,1015.3
2021-08-30T03:35:00+09:00,0.6,�쐼,1.4,��쐼,25,93.3,0,0,0,0,0,0,1001.9,1015.3
2021-08-30T03:36:00+09:00,0.6,�쐼,1.4,��쐼,25.3,94.2,0,0,0,0,0,0,1001.9,1015.3
2021-08-30T03:37:00+09:00,0.7,��쐼,1.4,��쐼,25.1,94,0,0,0,0,0,0,1001.9,1015.3
2021-08-30T03:38:00+09:00,0.7,��쐼,1.4,��쐼,25,93.6,0,0,0,0,0,0,1001.9,1015.3
2021-08-30T03:39:00+09:00,0.8,�쐼,1.4,��쐼,25,93.8,0,0,0,0,0,0,1001.9,1015.3
2021-08-30T03:40:00+09:00,0.9,�쐼,1.4,��쐼,24.8,93.8,0,0,0,0,0,0,1001.9,1015.3
2021-08-30T03:41:00+09:00,1,��쐼,1.5,�쐼,24.8,94.2,0,0,0,0,0,0,1001.9,1015.3
2021-08-30T03:42:00+09:00,1,��쐼,1.5,�쐼,24.8,94.5,0,0,0,0,0,0,1001.9,1015.3
2021-08-30T03:43:00+09:00,1,��쐼,1.5,�쐼,24.8,95.1,0,0,0,0,0,0,1001.9,1015.3
2021-08-30T03:44:00+09:00,1,��쐼,1.5,�쐼,24.8,95.3,0,0,0,0,0,0,1001.9,1015.3
2021-08-30T03:45:00+09:00,1.1,��쐼,1.5,�쐼,25.1,95.7,0,0,0,0,0,0,1001.9,1015.3
2021-08-30T03:46:00+09:00,1.1,��쐼,1.7,��쐼,25,95.5,0,0,0,0,0,0,1001.9,1015.3
2021-08-30T03:47:00+09:00,1.2,��쐼,1.8,��쐼,25,95.3,0,0,0,0,0,0,1001.9,1015.3
2021-08-30T03:48:00+09:00,1.3,��쐼,2,��쐼,25,95.3,0,0,0,0,0,0,1001.9,1015.3
2021-08-30T03:49:00+09:00,1.3,��쐼,2,��쐼,25.2,95.3,0,0,0,0,0,0,1001.9,1015.3
2021-08-30T03:50:00+09:00,1.3,��쐼,2,��쐼,25.3,95.3,0,0,0,0,0,0,1001.8,1015.2
2021-08-30T03:51:00+09:00,1.3,��쐼,2,��쐼,25.4,95,0,0,0,0,0,0,1001.8,1015.2
2021-08-30T03:52:00+09:00,1.2,��쐼,2,��쐼,25.4,94.2,0,0,0,0,0,0,1001.8,1015.2
2021-08-30T03:53:00+09:00,1.2,��쐼,2,��쐼,25.4,93.9,0,0,0,0,0,0,1001.8,1015.2
2021-08-30T03:54:00+09:00,1.2,��쐼,2,��쐼,25.4,93.3,0,0,0,0,0,0,1001.8,1015.2
2021-08-30T03:55:00+09:00,1.1,��쐼,2,��쐼,25.5,93.3,0,0,0,0,0,0,1001.9,1015.3
2021-08-30T03:56:00+09:00,1,��쐼,2,��쐼,25.4,92.7,0,0,0,0,0,0,1001.9,1015.3
2021-08-30T03:57:00+09:00,0.9,��쐼,2,��쐼,25.4,92.6,0,0,0,0,0,0,1001.9,1015.3
2021-08-30T03:58:00+09:00,0.8,��쐼,1.8,��쐼,25.5,92.7,0,0,0,0,0,0,1001.9,1015.3
2021-08-30T03:59:00+09:00,0.7,�쐼,1.8,��쐼,25.5,92.7,0,0,0,0,0,0,1001.8,1015.2
2021-08-30T04:00:00+09:00,0.8,��쐼,1.8,��쐼,25.5,92.3,0,0,0,0,0,0,1001.8,1015.2
2021-08-30T04:01:00+09:00,0.7,��쐼,1.4,��쐼,25.5,92.2,0,0,0,0,0,0,1001.8,1015.2
2021-08-30T04:02:00+09:00,0.8,��쐼,1.4,��쐼,25.4,91.9,0,0,0,0,0,0,1001.8,1015.2
2021-08-30T04:03:00+09:00,0.8,��쐼,1.4,��쐼,25.3,91.6,0,0,0,0,0,0,1001.8,1015.2
2021-08-30T04:04:00+09:00,0.8,��쐼,1.4,��쐼,25.1,91.8,0,0,0,0,0,0,1001.8,1015.2
2021-08-30T04:05:00+09:00,0.8,��쐼,1.8,��쐼,25.1,92.2,0,0,0,0,0,0,1001.8,1015.2
2021-08-30T04:06:00+09:00,0.8,��쐼,1.8,��쐼,25.2,93,0,0,0,0,0,0,1001.8,1015.2
2021-08-30T04:07:00+09:00,0.8,��쐼,1.8,��쐼,25.1,93.2,0,0,0,0,0,0,1001.8,1015.2
2021-08-30T04:08:00+09:00,0.8,��쐼,1.8,��쐼,25.1,93.2,0,0,0,0,0,0,1001.8,1015.2
2021-08-30T04:09:00+09:00,0.8,��쐼,1.8,��쐼,25.2,93.6,0,0,0,0,0,0,1001.8,1015.2
2021-08-30T04:10:00+09:00,0.7,��쐼,1.8,��쐼,25,92.9,0,0,0,0,0,0,1001.8,1015.2
2021-08-30T04:11:00+09:00,0.7,��쐼,1.8,��쐼,24.9,93.3,0,0,0,0,0,0,1001.8,1015.2
2021-08-30T04:12:00+09:00,0.6,��쐼,1.8,��쐼,24.8,93.8,0,0,0,0,0,0,1001.8,1015.2
2021-08-30T04:13:00+09:00,0.5,��쐼,1.8,��쐼,24.9,94.2,0,0,0,0,0,0,1001.8,1015.2
2021-08-30T04:14:00+09:00,0.5,��쐼,1.8,��쐼,24.7,94.4,0,0,0,0,0,0,1001.8,1015.2
2021-08-30T04:15:00+09:00,0.5,��쐼,1.2,��쐼,24.7,94.2,0,0,0,0,0,0,1001.8,1015.2
2021-08-30T04:16:00+09:00,0.6,��쐼,1.2,��쐼,24.6,94.6,0,0,0,0,0,0,1001.8,1015.2
2021-08-30T04:17:00+09:00,0.6,��쐼,1.2,��쐼,24.7,95.3,0,0,0,0,0,0,1001.8,1015.2
2021-08-30T04:18:00+09:00,0.6,��쐼,1.2,��쐼,24.7,95.4,0,0,0,0,0,0,1001.8,1015.2
2021-08-30T04:19:00+09:00,0.7,��쐼,1.2,��쐼,24.7,95.5,0,0,0,0,0,0,1001.8,1015.2
2021-08-30T04:20:00+09:00,0.7,��쐼,1.2,��쐼,24.8,95.8,0,0,0,0,0,0,1001.8,1015.2
2021-08-30T04:21:00+09:00,0.8,��쐼,1.2,��쐼,24.7,95.7,0,0,0,0,0,0,1001.8,1015.2
2021-08-30T04:22:00+09:00,0.8,��쐼,1.3,��쐼,24.8,95.6,0,0,0,0,0,0,1001.8,1015.2
2021-08-30T04:23:00+09:00,0.9,��쐼,1.3,��쐼,24.7,95.6,0,0,0,0,0,0,1001.7,1015.1
2021-08-30T04:24:00+09:00,0.9,��쐼,1.3,��쐼,24.6,95.4,0,0,0,0,0,0,1001.7,1015.1
2021-08-30T04:25:00+09:00,0.9,��쐼,1.3,��쐼,24.6,95.4,0,0,0,0,0,0,1001.7,1015.1
2021-08-30T04:26:00+09:00,0.9,��쐼,1.3,��쐼,24.5,95.6,0,0,0,0,0,0,1001.7,1015.1
2021-08-30T04:27:00+09:00,0.9,��쐼,1.3,��쐼,24.6,95.8,0,0,0,0,0,0,1001.7,1015.1
2021-08-30T04:28:00+09:00,0.8,��쐼,1.3,��쐼,24.6,95.8,0,0,0,0,0,0,1001.7,1015.1
2021-08-30T04:29:00+09:00,0.8,��쐼,1.4,��쐼,24.7,95.9,0,0,0,0,0,0,1001.7,1015.1
2021-08-30T04:30:00+09:00,0.8,��쐼,1.4,��쐼,24.6,95.9,0,0,0,0,0,0,1001.8,1015.2
2021-08-30T04:31:00+09:00,0.8,��쐼,1.4,��쐼,24.6,95.9,0,0,0,0,0,0,1001.8,1015.2
2021-08-30T04:32:00+09:00,0.7,��쐼,1.4,��쐼,24.7,96,0,0,0,0,0,0,1001.8,1015.2
2021-08-30T04:33:00+09:00,0.6,��쐼,1.4,��쐼,24.5,95.7,0,0,0,0,0,0,1001.8,1015.2
2021-08-30T04:34:00+09:00,0.6,��쐼,1.4,��쐼,24.6,95.8,0,0,0,0,0,0,1001.8,1015.2
2021-08-30T04:35:00+09:00,0.6,��쐼,1.4,��쐼,24.4,95.8,0,0,0,0,0,0,1001.8,1015.2
2021-08-30T04:36:00+09:00,0.6,��쐼,1.4,��쐼,24.4,95.7,0,0,0,0,0,0,1001.8,1015.2
2021-08-30T04:37:00+09:00,0.7,�쐼,1.4,��쐼,24.6,96.1,0,0,0,0,0,0,1001.8,1015.2
2021-08-30T04:38:00+09:00,0.7,�쐼,1.4,��쐼,24.7,96.2,0,0,0,0,0,0,1001.8,1015.2
2021-08-30T04:39:00+09:00,0.7,��쐼,1.4,��,24.7,96.2,0,0,0,0,0,0,1001.8,1015.2
2021-08-30T04:40:00+09:00,0.7,��쐼,1.4,��,24.8,96,0,0,0,0,0,0,1001.9,1015.3
2021-08-30T04:41:00+09:00,0.7,��쐼,1.4,��,24.9,96.1,0,0,0,0,0,0,1001.9,1015.3
2021-08-30T04:42:00+09:00,0.7,��쐼,1.4,��,25.1,96,0,0,0,0,0,0,1001.9,1015.3
2021-08-30T04:43:00+09:00,0.7,��쐼,1.4,��,25.2,95.8,0,0,0,0,0,0,1002,1015.4
2021-08-30T04:44:00+09:00,0.7,��쐼,1.4,��,25.2,95.1,0,0,0,0,0,0,1002,1015.4
2021-08-30T04:45:00+09:00,0.7,��쐼,1.4,��,25.2,94.7,0,0,0,0,0,0,1002,1015.4
2021-08-30T04:46:00+09:00,0.6,��쐼,1.4,��,25,93.5,0,0,0,0,0,0,1002,1015.4
2021-08-30T04:47:00+09:00,0.5,�쐼,1.4,��,25,93.5,0,0,0,0,0,0,1002,1015.4
2021-08-30T04:48:00+09:00,0.5,�쐼,1.4,��,25.1,93.8,0,0,0,0,0,0,1002,1015.4
2021-08-30T04:49:00+09:00,0.5,�쐼,1,��,25.2,93.8,0,0,0,0,0,0,1002,1015.4
2021-08-30T04:50:00+09:00,0.4,�쐼,1,��,25.1,93.4,0,0,0,0,0,0,1002,1015.4
2021-08-30T04:51:00+09:00,0.4,���쐼,1,��,24.9,92.7,0,0,0,0,0,0,1002.1,1015.5
2021-08-30T04:52:00+09:00,0.4,���쐼,1,��,24.8,92.9,0,0,0,0,0,0,1002.1,1015.5
2021-08-30T04:53:00+09:00,0.4,���쐼,1,��,24.7,93.3,0,0,0,0,0,0,1002.1,1015.5
2021-08-30T04:54:00+09:00,0.4,��,1,��,24.7,93.9,0,0,0,0,0,0,1002.1,1015.5
2021-08-30T04:55:00+09:00,0.3,��,1,��,24.7,94.2,0,0,0,0,0,0,1002.1,1015.5
2021-08-30T04:56:00+09:00,0.4,��,1,��,24.7,94.7,0,0,0,0,0,0,1002.1,1015.5
2021-08-30T04:57:00+09:00,0.4,��,1,��,24.7,95,0,0,0,0,0,0,1002.1,1015.5
2021-08-30T04:58:00+09:00,0.4,���k��,1,��,24.7,95.1,0,0,0,0,0,0,1002.1,1015.5
2021-08-30T04:59:00+09:00,0.3,���k��,0.9,���쐼,24.8,95.4,0,0,0,0,0,0,1002.1,1015.5
2021-08-30T05:00:00+09:00,0.3,���k��,0.8,�k��,24.8,95.4,0,0,0,0,0,0,1002.1,1015.5
2021-08-30T05:01:00+09:00,0.4,�k��,0.9,�k�k��,24.8,95.3,0,0,0,0,0,0,1002.2,1015.6
2021-08-30T05:02:00+09:00,0.4,�k��,0.9,�k�k��,24.8,95.3,0,0,0,0,0,0,1002.2,1015.6
2021-08-30T05:03:00+09:00,0.4,�k�k��,0.9,�k�k��,24.7,95,0,0,0,0,0,0,1002.2,1015.6